FW5184 Weather Reports


time (UTC)temp
F
wind
direction
speed
knots
gust
knots
rain 1hr
in
rain 24hr
in
rain mn
in
humidity
%
barometer
mb
20260503224000 49 204 0.9 4.3 0.00 0.03 0.03 85 1007.8
20260503222509 49 233 0.9 4.3 0.00 0.03 0.03 85 1008.0
20260503220924 48 228 0.9 4.3 0.00 0.03 0.03 86 1008.2
20260503215446 48 248 0.9 4.3 0.00 0.03 0.03 86 1008.5
20260503213955 48 265 0.9 4.3 0.00 0.03 0.03 85 1008.3
20260503212514 48 275 0.9 9.6 0.03 0.03 0.03 85 1008.2
20260503210943 48 241 3.5 19.1 0.03 0.03 0.03 83 1008.3
20260503205423 48 232 6.1 14.8 0.04 0.02 0.02 80 1008.8
20260503202333 50 284 4.3 13.0 0.00 0.00 0.00 74 1008.5
20260503200802 52 271 7.8 20.9 0.00 0.00 0.00 66 1008.6
20260503195235 56 257 7.8 20.0 0.00 0.00 0.00 52 1008.2
20260503193711 56 319 6.1 13.0 0.00 0.00 0.00 52 1008.2
20260503192125 56 217 5.2 17.4 0.00 0.00 0.00 49 1008.5
20260503190611 55 214 7.0 17.4 0.00 0.00 0.00 48 1008.3
20260503185044 56 224 6.1 14.8 0.00 0.00 0.00 44 1008.2
20260503181952 58 240 6.1 13.9 0.00 0.00 0.00 44 1008.5
20260503174821 57 234 7.0 16.5 0.00 0.00 0.00 43 1009.0
20260503173319 57 246 7.0 16.5 0.00 0.00 0.00 45 1009.3
20260503171859 55 204 7.0 13.0 0.00 0.00 0.00 45 1009.4
20260503170351 54 220 7.0 13.0 0.00 0.00 0.00 46 1009.7
20260503150320 49 181 4.3 8.7 0.00 0.00 0.00 51 1011.4
20260503140225 46 220 2.6 6.1 0.00 0.00 0.00 58 1012.4
20260503130317 41 223 0.9 3.5 0.00 0.00 0.00 73 1012.5
20260503120127 34 237 0.0 2.6 0.00 0.00 0.00 87 1012.4
20260503081549 27 213 0.0 0.0 0.00 0.00 0.00 82 1013.1
20260503080123 27 213 0.0 0.0 0.00 0.00 0.00 82 1013.2
20260503071536 27 213 0.0 0.0 0.00 0.00 0.00 82 1013.3
20260503070114 27 213 0.0 0.0 0.00 0.00 0.00 83 1013.3
20260503060145 27 213 0.0 0.0 0.00 0.00 0.00 80 1013.9
20260503054655 27 213 0.0 0.0 0.00 0.00 0.00 81 1014.0
20260503053231 27 213 0.0 0.0 0.00 0.00 0.00 81 1014.0
20260503051707 27 213 0.0 0.0 0.00 0.00 0.00 80 1014.1
20260503050222 27 213 0.0 0.0 0.00 0.00 0.00 78 1014.2
20260503044723 27 213 0.0 0.0 0.00 0.00 0.00 77 1014.2
20260503043204 28 213 0.0 0.0 0.00 0.00 0.00 76 1014.3
20260503041616 28 213 0.0 0.0 0.00 0.00 0.00 75 1014.4
20260503040110 29 213 0.0 0.0 0.00 0.00 0.00 75 1014.3
20260503034627 29 213 0.0 0.0 0.00 0.00 0.00 75 1014.3
20260503033202 29 213 0.0 0.0 0.00 0.00 0.00 74 1014.3
20260503031640 30 213 0.0 0.0 0.00 0.00 0.00 72 1014.3
20260503030216 30 213 0.0 0.0 0.00 0.00 0.00 72 1014.4
20260503024716 31 213 0.0 0.0 0.00 0.00 0.00 71 1014.5
20260503023150 32 213 0.0 0.0 0.00 0.00 0.00 70 1014.6
20260503021715 32 213 0.0 0.0 0.00 0.00 0.00 69 1014.7
20260503020153 34 213 0.0 0.0 0.00 0.00 0.00 66 1014.6
20260503014726 35 213 0.0 0.0 0.00 0.00 0.00 66 1014.6
20260503013150 36 213 0.0 0.0 0.00 0.00 0.00 65 1014.5
20260503011638 37 213 0.0 0.0 0.00 0.00 0.00 63 1014.5
20260503010124 38 213 0.0 0.0 0.00 0.00 0.00 61 1014.4
20260503004632 39 213 0.0 0.0 0.00 0.00 0.00 58 1014.2
20260503003128 41 215 0.0 0.0 0.00 0.00 0.00 56 1014.0
20260503001645 41 282 0.0 0.0 0.00 0.00 0.00 57 1014.0
20260502234444 42 286 0.0 3.5 0.00 0.00 0.00 55 1014.1
20260502232920 42 247 1.7 4.3 0.00 0.00 0.00 52 1014.2
20260502231355 43 298 1.7 7.0 0.00 0.00 0.00 52 1014.2
20260502225857 44 322 2.6 8.7 0.00 0.00 0.00 52 1014.2